Location: Days
(41.3591°N, 106.7339°W)
Time: 07:27:59
(UTC+00:00)

CAS-4A - Visible Passes

Search period start: 01 July 2022 00:00
Search period end: 11 July 2022 00:00
Orbit: 523 x 536 km, 43.0° (Epoch: 30 June)

Date Brightness Start Highest point End Pass type
(mag) Time Alt. Az. Time Alt. Az. Time Alt. Az.
01 Jul ? 08:21:47 17° ESE 08:21:47 17° ESE 08:23:08 10° E visible
01 Jul ? 09:56:58 23° WSW 09:59:25 86° SSE 10:03:28 10° ENE visible
02 Jul ? 08:09:30 17° E 08:09:30 17° E 08:10:43 10° E visible
02 Jul ? 09:44:41 26° WSW 09:46:53 86° N 09:50:56 10° ENE visible
03 Jul ? 07:57:13 17° E 07:57:13 17° E 07:58:15 10° E visible
03 Jul ? 09:32:24 29° W 09:34:21 80° N 09:38:24 10° ENE visible
04 Jul ? 07:44:55 15° E 07:44:55 15° E 07:45:46 10° E visible
04 Jul ? 09:20:06 33° W 09:21:50 75° N 09:25:52 10° ENE visible
04 Jul ? 10:57:56 10° WNW 11:01:59 77° N 11:06:03 10° E visible
05 Jul ? 07:32:38 14° E 07:32:38 14° E 07:33:15 10° E visible
05 Jul ? 09:07:49 37° W 09:09:17 71° N 09:13:20 10° E visible
05 Jul ? 10:45:25 10° WNW 10:49:27 83° NNE 10:53:31 10° E visible
06 Jul ? 07:20:23 12° E 07:20:23 12° E 07:20:43 10° ENE visible
06 Jul ? 08:55:34 42° WNW 08:56:46 69° N 09:00:48 10° E visible
06 Jul ? 10:32:51 10° WNW 10:36:55 90° NE 10:40:58 10° ESE visible
07 Jul ? 08:43:25 51° WNW 08:44:14 68° N 08:48:15 10° E visible
07 Jul ? 10:20:19 10° WNW 10:24:21 82° SSW 10:28:23 10° ESE visible
08 Jul ? 08:31:26 65° NNW 08:31:42 67° N 08:35:43 10° E visible
08 Jul ? 10:07:45 10° WNW 10:11:47 73° SSW 10:15:48 10° ESE visible
09 Jul ? 08:19:46 57° NE 08:19:46 57° NE 08:23:10 10° E visible
09 Jul ? 09:55:12 10° WNW 09:59:11 64° SSW 10:03:11 10° ESE visible
10 Jul ? 04:43:01 10° SW 04:43:50 15° SSW 04:43:50 15° SSW visible
10 Jul ? 08:08:49 25° E 08:08:49 25° E 08:10:38 10° E visible
10 Jul ? 09:44:07 21° W 09:46:35 55° SSW 09:50:32 10° SE visible
